QPF
0.03 0.05 0.06 0.05 0.04 0.03 0.03 0.04 0.05 0.06 0.06 0.07 0.08 0.09 0.09 0.09 0.11 0.09 0.11 0.13 0.12 0.10 0.10 0.11 0.10 0.09 0.09 0.09 0.08 0.08 0.09 0.08 0.06 0.05 0.05 0.04 0.03 0.02
0.02 0.02 0.04 0.07 0.10 0.10 0.08 0.07 0.07 0.07 0.07 0.07 0.07 0.09 0.09 0.09 0.11 0.08 0.09 0.12 0.12 0.11 0.09 0.08 0.07 0.08 0.08 0.09 0.09 0.09 0.08 0.08 0.07 0.06 0.05 0.04 0.03 0.02
0.01 0.02 0.02 0.04 0.06 0.09 0.09 0.09 0.09 0.11 0.11 0.11 0.10 0.11 0.11 0.09 0.09 0.08 0.08 0.08 0.08 0.09 0.08 0.07 0.07 0.07 0.07 0.08 0.10 0.10 0.09 0.09 0.09 0.08 0.07 0.05 0.04 0.02
0.01 0.01 0.01 0.02 0.03 0.04 0.06 0.07 0.08 0.09 0.11 0.14 0.14 0.13 0.11 0.10 0.08 0.07 0.07 0.06 0.05 0.07 0.08 0.08 0.06 0.06 0.06 0.06 0.07 0.08 0.08 0.09 0.08 0.07 0.06 0.05 0.03 0.01
0.01 0.01 0.02 0.02 0.03 0.04 0.05 0.05 0.05 0.06 0.08 0.10 0.13 0.13 0.12 0.10 0.08 0.07 0.05 0.04 0.03 0.04 0.05 0.06 0.06 0.06 0.06 0.06 0.07 0.07 0.08 0.08 0.06 0.05 0.04 0.03 0.01 0.01
0.00 0.00 0.01 0.01 0.01 0.02 0.04 0.05 0.06 0.07 0.08 0.11 0.13 0.13 0.11 0.10 0.08 0.07 0.05 0.04 0.03 0.03 0.04 0.04 0.06 0.08 0.08 0.07 0.07 0.07 0.07 0.06 0.05 0.03 0.02 0.01 0.01 0.00
0.00 0.00 0.00 0.00 0.00 0.01 0.02 0.04 0.05 0.05 0.05 0.06 0.09 0.10 0.10 0.08 0.06 0.06 0.04 0.04 0.04 0.04 0.04 0.03 0.04 0.05 0.05 0.05 0.04 0.03 0.03 0.03 0.03 0.02 0.01 0.01 0.00 0.00
0.00 0.01 0.01 0.01 0.01 0.01 0.01 0.02 0.03 0.04 0.05 0.05 0.05 0.06 0.06 0.05 0.05 0.05 0.04 0.04 0.05 0.04 0.02 0.03 0.03 0.03 0.03 0.03 0.04 0.04 0.03 0.02 0.02 0.01 0.01 0.00 0.00 0.00
0.01 0.01 0.02 0.02 0.02 0.01 0.02 0.03 0.03 0.04 0.05 0.05 0.05 0.04 0.04 0.04 0.03 0.03 0.04 0.05 0.04 0.03 0.02 0.02 0.02 0.02 0.02 0.03 0.03 0.03 0.02 0.01 0.01 0.01 0.01 0.00 0.00 0.00
0.01 0.01 0.02 0.03 0.03 0.03 0.03 0.04 0.04 0.04 0.04 0.04 0.04 0.04 0.04 0.05 0.04 0.04 0.04 0.05 0.04 0.03 0.02 0.02 0.02 0.02 0.02 0.01 0.01 0.01 0.01 0.01 0.01 0.00 0.00 0.00 0.00 0.00
0.01 0.02 0.02 0.02 0.04 0.05 0.05 0.05 0.04 0.04 0.04 0.05 0.06 0.06 0.06 0.05 0.04 0.03 0.02 0.03 0.04 0.03 0.02 0.02 0.02 0.01 0.01 0.01 0.01 0.01 0.01 0.01 0.01 0.00 0.00 0.00 0.00 0.00
0.02 0.02 0.03 0.03 0.04 0.05 0.05 0.05 0.05 0.04 0.04 0.05 0.05 0.06 0.05 0.05 0.05 0.03 0.02 0.01 0.01 0.01 0.01 0.01 0.01 0.01 0.01 0.01 0.01 0.00 0.00 0.00 0.00 0.00 0.00 0.00 0.00 0.00
0.03 0.03 0.03 0.04 0.05 0.06 0.06 0.05 0.04 0.04 0.03 0.03 0.03 0.03 0.04 0.04 0.03 0.01 0.00 0.00 0.00 0.00 0.00 0.01 0.01 0.01 0.00 0.00 0.00 0.00 0.00 0.00 0.00 0.00 0.00 0.00 0.00 0.00
0.02 0.03 0.04 0.05 0.05 0.06 0.06 0.07 0.05 0.04 0.03 0.02 0.02 0.02 0.02 0.02 0.01 0.00 0.00 0.00 0.00 0.00 0.00 0.00 0.00 0.01 0.00 0.00 0.00 0.00 0.00 0.00 0.00 0.00 0.00 0.00 0.00 0.00
0.02 0.04 0.05 0.05 0.06 0.06 0.06 0.06 0.06 0.04 0.03 0.02 0.02 0.02 0.01 0.01 0.00 0.00 0.00 0.00 0.00 0.00 0.00 0.00 0.00 0.00 0.00 0.00 0.00 0.00 0.00 0.00 0.00 0.00 0.00 0.00 0.00 0.00
0.03 0.05 0.07 0.06 0.05 0.05 0.06 0.05 0.05 0.04 0.03 0.02 0.01 0.01 0.01 0.00 0.00 0.00 0.00 0.00 0.00 0.00 0.00 0.00 0.00 0.00 0.00 0.00 0.00 0.00 0.00 0.00 0.00 0.00 0.00 0.00 0.00 0.00
0.04 0.05 0.05 0.04 0.03 0.03 0.04 0.03 0.03 0.02 0.02 0.01 0.01 0.00 0.00 0.00 0.00 0.00 0.00 0.00 0.00 0.00 0.00 0.00 0.00 0.00 0.00 0.00 0.00 0.00 0.00 0.00 0.00 0.00 0.00 0.00 0.00 0.00
0.03 0.03 0.03 0.02 0.02 0.02 0.02 0.02 0.01 0.01 0.01 0.01 0.00 0.00 0.00 0.00 0.00 0.00 0.00 0.00 0.00 0.00 0.00 0.00 0.00 0.00 0.00 0.00 0.00 0.00 0.00 0.00 0.00 0.00 0.00 0.00 0.00 0.00
0.02 0.02 0.02 0.01 0.01 0.01 0.01 0.01 0.00 0.00 0.00 0.00 0.00 0.00 0.00 0.00 0.00 0.00 0.00 0.00 0.00 0.00 0.00 0.00 0.00 0.00 0.00 0.00 0.00 0.00 0.00 0.00 0.00 0.00 0.00 0.00 0.00 0.00
0.01 0.01 0.01 0.01 0.01 0.01 0.00 0.00 0.00 0.00 0.00 0.00 0.00 0.00 0.00 0.00 0.00 0.00 0.00 0.00 0.00 0.00 0.00 0.00 0.00 0.00 0.00 0.00 0.00 0.00 0.00 0.00 0.00 0.00 0.00 0.00 0.00 0.00
0.01 0.01 0.00 0.00 0.00 0.00 0.00 0.00 0.00 0.00 0.00 0.00 0.00 0.00 0.00 0.00 0.00 0.00 0.00 0.00 0.00 0.00 0.00 0.00 0.00 0.00 0.00 0.00 0.00 0.00 0.00 0.00 0.00 0.00 0.00 0.00 0.00 0.00
0.00 0.00 0.00 0.00 0.00 0.00 0.00 0.00 0.00 0.00 0.00 0.00 0.00 0.00 0.00 0.00 0.00 0.00 0.00 0.00 0.00 0.00 0.00 0.00 0.00 0.00 0.00 0.00 0.00 0.00 0.00 0.00 0.00 0.00 0.00 0.00 0.00 0.00
0.00 0.00 0.00 0.00 0.00 0.00 0.00 0.00 0.00 0.00 0.00 0.00 0.00 0.00 0.00 0.00 0.00 0.00 0.00 0.00 0.00 0.00 0.00 0.00 0.00 0.00 0.00 0.00 0.00 0.00 0.00 0.00 0.00 0.00 0.00 0.00 0.01 0.00
MSLP
1017.67 1017.60 1017.60 1017.64 1017.74 1017.86 1018.00 1018.16 1018.34 1018.53 1018.77 1019.05 1019.39 1019.80 1020.28 1020.82 1021.41 1022.03 1022.66 1023.28 1023.89 1024.45 1024.98 1025.46 1025.88 1026.26 1026.58 1026.86 1027.09 1027.29 1027.46 1027.60 1027.72 1027.82 1027.90 1027.96 1028.01 1028.04
1017.56 1017.45 1017.41 1017.43 1017.51 1017.64 1017.81 1018.04 1018.31 1018.63 1019.00 1019.44 1019.93 1020.48 1021.06 1021.68 1022.29 1022.90 1023.48 1024.03 1024.53 1024.99 1025.41 1025.80 1026.15 1026.47 1026.76 1027.03 1027.26 1027.46 1027.63 1027.76 1027.86 1027.93 1027.96 1027.98 1027.97 1027.95
1017.48 1017.36 1017.30 1017.31 1017.39 1017.54 1017.77 1018.06 1018.43 1018.87 1019.38 1019.95 1020.58 1021.24 1021.91 1022.57 1023.20 1023.77 1024.28 1024.72 1025.10 1025.44 1025.73 1026.01 1026.28 1026.53 1026.79 1027.03 1027.26 1027.46 1027.62 1027.74 1027.82 1027.85 1027.85 1027.82 1027.77 1027.71
1017.50 1017.39 1017.34 1017.36 1017.46 1017.64 1017.91 1018.26 1018.71 1019.25 1019.86 1020.54 1021.26 1022.00 1022.72 1023.39 1023.99 1024.50 1024.92 1025.25 1025.50 1025.71 1025.88 1026.05 1026.23 1026.43 1026.64 1026.85 1027.06 1027.25 1027.41 1027.52 1027.58 1027.59 1027.56 1027.50 1027.42 1027.33
1017.68 1017.59 1017.57 1017.61 1017.73 1017.94 1018.24 1018.64 1019.14 1019.73 1020.40 1021.13 1021.90 1022.66 1023.38 1024.03 1024.58 1025.01 1025.33 1025.55 1025.69 1025.77 1025.84 1025.92 1026.02 1026.15 1026.32 1026.51 1026.70 1026.88 1027.02 1027.12 1027.17 1027.16 1027.12 1027.04 1026.95 1026.85
1018.04 1017.99 1017.99 1018.06 1018.20 1018.43 1018.74 1019.15 1019.66 1020.26 1020.93 1021.66 1022.41 1023.15 1023.83 1024.42 1024.90 1025.26 1025.49 1025.61 1025.65 1025.64 1025.63 1025.63 1025.67 1025.76 1025.89 1026.05 1026.22 1026.38 1026.51 1026.59 1026.62 1026.61 1026.56 1026.48 1026.39 1026.30
1018.58 1018.57 1018.60 1018.69 1018.84 1019.06 1019.36 1019.74 1020.22 1020.77 1021.40 1022.07 1022.76 1023.43 1024.04 1024.56 1024.97 1025.25 1025.41 1025.46 1025.44 1025.38 1025.31 1025.27 1025.28 1025.33 1025.43 1025.56 1025.70 1025.84 1025.94 1026.00 1026.01 1025.99 1025.93 1025.86 1025.78 1025.72
1019.27 1019.28 1019.33 1019.42 1019.57 1019.77 1020.03 1020.36 1020.77 1021.24 1021.78 1022.37 1022.97 1023.54 1024.07 1024.50 1024.84 1025.06 1025.17 1025.19 1025.14 1025.06 1024.98 1024.93 1024.91 1024.94 1025.02 1025.12 1025.23 1025.32 1025.39 1025.41 1025.40 1025.36 1025.29 1025.21 1025.15 1025.10
1020.04 1020.06 1020.12 1020.21 1020.33 1020.50 1020.70 1020.97 1021.29 1021.67 1022.10 1022.58 1023.07 1023.54 1023.98 1024.34 1024.62 1024.80 1024.89 1024.90 1024.86 1024.78 1024.71 1024.66 1024.65 1024.66 1024.71 1024.78 1024.84 1024.89 1024.90 1024.88 1024.83 1024.75 1024.66 1024.58 1024.51 1024.47
1020.82 1020.85 1020.91 1020.99 1021.09 1021.21 1021.36 1021.55 1021.78 1022.07 1022.40 1022.77 1023.15 1023.54 1023.89 1024.19 1024.43 1024.58 1024.67 1024.69 1024.66 1024.61 1024.56 1024.52 1024.51 1024.52 1024.54 1024.56 1024.57 1024.56 1024.51 1024.43 1024.32 1024.20 1024.07 1023.96 1023.88 1023.83
1021.57 1021.60 1021.65 1021.72 1021.80 1021.88 1021.99 1022.12 1022.28 1022.48 1022.72 1023.00 1023.30 1023.60 1023.89 1024.13 1024.33 1024.47 1024.56 1024.59 1024.58 1024.56 1024.53 1024.50 1024.48 1024.48 1024.47 1024.44 1024.40 1024.32 1024.20 1024.05 1023.88 1023.70 1023.52 1023.37 1023.25 1023.17
1022.24 1022.28 1022.33 1022.38 1022.45 1022.51 1022.58 1022.67 1022.79 1022.93 1023.11 1023.31 1023.54 1023.78 1024.01 1024.21 1024.37 1024.49 1024.57 1024.60 1024.61 1024.59 1024.57 1024.54 1024.51 1024.48 1024.43 1024.36 1024.26 1024.11 1023.93 1023.71 1023.48 1023.23 1023.00 1022.80 1022.63 1022.50
1022.84 1022.88 1022.92 1022.98 1023.03 1023.09 1023.15 1023.22 1023.30 1023.41 1023.54 1023.70 1023.88 1024.06 1024.24 1024.40 1024.52 1024.61 1024.66 1024.68 1024.67 1024.65 1024.62 1024.58 1024.53 1024.46 1024.38 1024.26 1024.10 1023.90 1023.66 1023.38 1023.08 1022.78 1022.50 1022.24 1022.02 1021.83
1023.37 1023.40 1023.45 1023.50 1023.55 1023.61 1023.66 1023.72 1023.80 1023.89 1024.00 1024.12 1024.26 1024.40 1024.53 1024.63 1024.71 1024.75 1024.77 1024.75 1024.71 1024.66 1024.60 1024.54 1024.46 1024.37 1024.25 1024.09 1023.89 1023.64 1023.35 1023.02 1022.68 1022.33 1021.99 1021.68 1021.40 1021.16
1023.83 1023.85 1023.89 1023.94 1023.99 1024.05 1024.10 1024.16 1024.23 1024.31 1024.41 1024.51 1024.61 1024.71 1024.78 1024.84 1024.86 1024.85 1024.81 1024.75 1024.67 1024.58 1024.49 1024.39 1024.28 1024.16 1024.01 1023.82 1023.59 1023.31 1022.98 1022.62 1022.24 1021.84 1021.46 1021.10 1020.77 1020.48
1024.22 1024.23 1024.25 1024.29 1024.33 1024.38 1024.43 1024.49 1024.56 1024.63 1024.71 1024.79 1024.86 1024.92 1024.95 1024.95 1024.92 1024.85 1024.76 1024.64 1024.52 1024.39 1024.26 1024.13 1023.99 1023.84 1023.67 1023.46 1023.21 1022.90 1022.55 1022.16 1021.74 1021.32 1020.89 1020.49 1020.11 1019.77
1024.54 1024.52 1024.52 1024.53 1024.56 1024.59 1024.63 1024.68 1024.74 1024.80 1024.87 1024.93 1024.97 1024.99 1024.98 1024.93 1024.85 1024.73 1024.59 1024.43 1024.27 1024.10 1023.94 1023.78 1023.63 1023.46 1023.26 1023.03 1022.76 1022.43 1022.06 1021.64 1021.19 1020.73 1020.26 1019.81 1019.39 1018.99
1024.76 1024.72 1024.68 1024.66 1024.66 1024.67 1024.69 1024.72 1024.77 1024.81 1024.86 1024.90 1024.93 1024.92 1024.87 1024.79 1024.67 1024.52 1024.34 1024.15 1023.96 1023.77 1023.59 1023.41 1023.23 1023.03 1022.81 1022.56 1022.26 1021.90 1021.50 1021.05 1020.56 1020.06 1019.55 1019.06 1018.58 1018.14
1024.88 1024.80 1024.74 1024.68 1024.65 1024.62 1024.62 1024.64 1024.66 1024.70 1024.73 1024.76 1024.76 1024.73 1024.67 1024.56 1024.42 1024.25 1024.06 1023.85 1023.64 1023.43 1023.23 1023.02 1022.82 1022.59 1022.34 1022.05 1021.71 1021.31 1020.86 1020.37 1019.84 1019.30 1018.75 1018.20 1017.68 1017.19
1024.88 1024.78 1024.68 1024.60 1024.53 1024.49 1024.46 1024.46 1024.47 1024.49 1024.51 1024.52 1024.51 1024.47 1024.40 1024.29 1024.14 1023.96 1023.76 1023.54 1023.32 1023.09 1022.87 1022.64 1022.39 1022.12 1021.82 1021.48 1021.08 1020.63 1020.13 1019.59 1019.01 1018.42 1017.83 1017.25 1016.68 1016.16
1024.76 1024.64 1024.53 1024.42 1024.34 1024.27 1024.23 1024.21 1024.21 1024.22 1024.23 1024.24 1024.22 1024.17 1024.09 1023.98 1023.83 1023.65 1023.44 1023.22 1022.98 1022.73 1022.48 1022.20 1021.91 1021.58 1021.22 1020.80 1020.34 1019.83 1019.27 1018.67 1018.05 1017.42 1016.80 1016.19 1015.60 1015.05
1024.53 1024.40 1024.28 1024.16 1024.07 1024.00 1023.95 1023.92 1023.91 1023.91 1023.91 1023.91 1023.88 1023.83 1023.75 1023.63 1023.47 1023.29 1023.07 1022.83 1022.57 1022.29 1021.99 1021.67 1021.31 1020.91 1020.47 1019.98 1019.45 1018.87 1018.25 1017.61 1016.96 1016.31 1015.67 1015.05 1014.46 1013.90
1024.19 1024.06 1023.94 1023.83 1023.73 1023.65 1023.60 1023.57 1023.55 1023.54 1023.53 1023.52 1023.48 1023.42 1023.32 1023.19 1023.03 1022.83 1022.60 1022.33 1022.04 1021.71 1021.36 1020.97 1020.54 1020.06 1019.55 1018.98 1018.38 1017.74 1017.08 1016.41 1015.75 1015.09 1014.46 1013.86 1013.29 1012.75
Thickness
5598 5600 5602 5604 5606 5607 5608 5609 5608 5607 5606 5604 5604 5605 5606 5608 5608 5608 5608 5608 5607 5607 5606 5604 5602 5601 5599 5597 5595 5593 5590 5587 5584 5581 5578 5575 5572 5569
5589 5591 5593 5595 5598 5599 5601 5601 5602 5602 5599 5596 5595 5595 5596 5597 5596 5597 5596 5596 5595 5595 5594 5592 5591 5590 5588 5586 5584 5582 5579 5577 5574 5571 5568 5565 5562 5559
5580 5582 5584 5586 5588 5590 5592 5593 5594 5594 5592 5587 5585 5585 5586 5586 5585 5585 5584 5584 5584 5583 5582 5581 5581 5579 5577 5576 5574 5572 5570 5567 5564 5561 5557 5555 5552 5549
5571 5573 5575 5578 5579 5580 5582 5584 5584 5585 5584 5580 5577 5575 5575 5575 5574 5574 5573 5572 5572 5572 5571 5570 5569 5568 5567 5565 5564 5561 5559 5557 5554 5551 5548 5546 5543 5540
5561 5563 5565 5568 5569 5571 5572 5574 5575 5575 5574 5572 5569 5566 5565 5564 5563 5562 5561 5561 5561 5561 5560 5560 5559 5557 5556 5555 5554 5552 5550 5548 5545 5542 5540 5537 5534 5532
5552 5554 5556 5558 5559 5561 5563 5563 5564 5564 5564 5563 5561 5558 5556 5554 5553 5552 5551 5550 5551 5551 5550 5550 5549 5548 5548 5547 5545 5544 5542 5540 5538 5535 5532 5530 5528 5526
5544 5545 5547 5549 5551 5552 5554 5554 5555 5555 5555 5554 5552 5550 5547 5546 5545 5543 5543 5541 5541 5541 5541 5541 5541 5540 5539 5539 5538 5537 5535 5534 5531 5529 5527 5525 5522 5520
5535 5536 5538 5540 5542 5544 5545 5546 5547 5548 5548 5548 5546 5544 5542 5540 5538 5537 5536 5536 5535 5533 5533 5533 5534 5533 5533 5532 5532 5531 5530 5528 5526 5524 5522 5520 5518 5517
5526 5528 5530 5532 5534 5536 5537 5538 5539 5540 5542 5542 5541 5540 5538 5536 5534 5532 5530 5530 5529 5527 5526 5528 5527 5527 5527 5527 5526 5526 5525 5524 5522 5521 5519 5517 5515 5514
5518 5520 5522 5525 5528 5530 5531 5532 5533 5534 5535 5536 5536 5535 5533 5531 5530 5529 5526 5524 5523 5521 5521 5523 5522 5522 5523 5522 5523 5522 5521 5521 5520 5518 5517 5515 5513 5512
5512 5514 5516 5519 5521 5524 5526 5527 5527 5528 5529 5530 5530 5529 5528 5527 5525 5524 5522 5522 5521 5519 5517 5518 5519 5518 5519 5520 5520 5519 5519 5518 5517 5516 5515 5514 5512 5511
5507 5509 5511 5513 5516 5519 5521 5522 5523 5522 5524 5524 5524 5523 5523 5522 5521 5521 5521 5520 5520 5519 5516 5515 5516 5516 5517 5517 5517 5517 5517 5516 5516 5515 5514 5513 5512 5510
5504 5506 5508 5510 5513 5515 5517 5518 5519 5519 5520 5520 5520 5519 5519 5518 5518 5518 5518 5518 5519 5518 5516 5514 5514 5514 5514 5515 5515 5515 5514 5514 5514 5514 5514 5513 5512 5510
5502 5504 5505 5508 5511 5513 5514 5515 5516 5517 5518 5518 5518 5517 5517 5517 5517 5517 5517 5517 5517 5517 5516 5514 5514 5513 5513 5513 5514 5514 5514 5513 5513 5513 5513 5513 5512 5511
5503 5504 5506 5508 5510 5512 5513 5514 5516 5516 5516 5517 5516 5516 5515 5515 5516 5516 5516 5516 5516 5516 5515 5514 5513 5512 5511 5512 5513 5513 5513 5514 5513 5512 5512 5512 5511 5511
5504 5505 5507 5509 5510 5512 5512 5513 5514 5515 5516 5516 5516 5515 5515 5516 5516 5516 5516 5516 5517 5517 5516 5515 5514 5512 5512 5512 5512 5513 5513 5513 5514 5513 5512 5512 5512 5512
5506 5508 5510 5511 5512 5513 5513 5514 5515 5516 5516 5516 5517 5517 5517 5517 5517 5516 5516 5516 5517 5517 5517 5516 5514 5513 5512 5512 5513 5514 5514 5514 5514 5513 5512 5513 5514 5514
5509 5510 5511 5512 5513 5514 5515 5516 5518 5518 5518 5518 5518 5518 5519 5519 5518 5518 5517 5517 5517 5517 5517 5516 5516 5516 5516 5516 5513 5514 5515 5515 5515 5513 5511 5512 5515 5516
5513 5514 5514 5516 5517 5518 5518 5519 5520 5520 5520 5520 5521 5521 5521 5520 5520 5520 5519 5518 5518 5518 5517 5516 5515 5515 5516 5518 5520 5516 5514 5516 5515 5514 5513 5512 5513 5516
5518 5519 5520 5521 5521 5522 5523 5523 5523 5524 5524 5524 5523 5523 5523 5522 5522 5522 5521 5520 5520 5519 5519 5518 5516 5515 5515 5516 5517 5518 5515 5514 5513 5514 5514 5513 5512 5513
5524 5524 5525 5526 5526 5527 5527 5527 5527 5527 5527 5527 5527 5526 5526 5525 5524 5524 5523 5521 5520 5520 5520 5521 5519 5516 5514 5512 5514 5518 5518 5516 5513 5512 5512 5512 5513 5513
5530 5530 5531 5532 5532 5533 5533 5533 5532 5532 5531 5531 5531 5530 5529 5527 5527 5526 5525 5524 5523 5522 5521 5521 5519 5516 5515 5515 5517 5518 5518 5518 5515 5513 5510 5508 5507 5510
5537 5538 5538 5538 5539 5539 5538 5538 5537 5537 5536 5536 5535 5533 5532 5530 5529 5528 5526 5525 5524 5523 5522 5522 5521 5518 5517 5515 5515 5515 5515 5515 5514 5514 5513 5511 5507 5505